Lexington Weather

Lexington, Massachusetts, USA

70°F
8/17/2022 5:51pm 
  • Lexington Conditions: Overcast
  • Temperature: 70.2°F / 21.2°CColder 0.7°F than last hour.
  • Dew Point: 59.2°FIncreased 1.5°Fsince last hour.
  • Relative Humidity: 68%Increased 5.0% since last hour.
  • Wind: Calm, 10-min avg: Calm, gust: 1 mph
  • Barometer: 29.86 inFalling 0.02  inHg/hr Falling Slowly
  • Visibility: 10 miles
  • Rain Today: 0.00 in
  •   

Regional Weather Roundup
for Boston, MA

        
000
ASUS41 KBOX 151310
RWRBOX

REGIONAL WEATHER ROUNDUP
NATIONAL WEATHER SERVICE BOSTON/NORTON MA
900 AM EDT MON AUG 15 2022

NOTE:  "FAIR" INDICATES FEW OR NO CLOUDS BELOW 12,000 FEET WITH NO 
SIGNIFICANT WEATHER AND/OR OBSTRUCTIONS TO VISIBILITY.

MAZALL-151400-
EASTERN MASSACHUSETTS
  
CITY           SKY/WX    TMP DP  RH WIND       PRES   REMARKS
BOSTON         MOSUNNY   73  55  53 NE8       30.02F                  
BEVERLY        SUNNY     72  57  59 VRB5      30.02S                  
LAWRENCE       SUNNY     73  57  57 NE5       30.04S                  
BEDFORD        MOSUNNY   71  56  58 CALM      30.02S                  
BLUE HILL      NOT AVBL                                               
NORWOOD        MOSUNNY   75  56  51 NE7       30.01F                  
MARSHFIELD     MOSUNNY   72  55  56 CALM      30.02S                  
PLYMOUTH       MOSUNNY   74  58  57 VRB3      30.03S                  
TAUNTON          N/A    N/A N/A N/A MISG      30.02S                  
NEW BEDFORD    MOSUNNY   73  57  57 CALM      30.01F                  
$$

MAZALL-151400-
CAPE COD AND THE ISLANDS
  
CITY           SKY/WX    TMP DP  RH WIND       PRES   REMARKS
FALMOUTH       SUNNY     73  55  53 S5        30.02F                  
HYANNIS        MOSUNNY   73  62  68 SE6       30.01F                  
CHATHAM        PTSUNNY   70  58  65 S5        30.04S                  
NANTUCKET      PTSUNNY   72  61  68 SE6       30.03S                  
MARTHAS VNYRD  MOSUNNY   72  65  78 SE6       30.02S                  
$$
 
MAZALL-151400-
CENTRAL AND WESTERN MASSACHUSETTS
  
CITY           SKY/WX    TMP DP  RH WIND       PRES   REMARKS
WORCESTER      MOSUNNY   70  55  59 E3        30.05S                  
FITCHBURG      MOSUNNY   73  51  46 NW5       30.03F                  
ORANGE         SUNNY     66  54  65 CALM      30.05F                  
SPRINGFIELD    MOSUNNY   66  54  66 NE3       30.00F                  
WESTFIELD      MOSUNNY   68  54  60 VRB5      30.02F                  
NORTH ADAMS    SUNNY     62  54  74 CALM      30.04                   
PITTSFIELD     SUNNY     67  54  63 NE3       30.04S                  
$$
 
RIZALL-151400-
RHODE ISLAND
  
CITY           SKY/WX    TMP DP  RH WIND       PRES   REMARKS
PROVIDENCE     PTSUNNY   73  55  53 CALM      30.03R                  
NEWPORT        MOSUNNY   74  56  53 N3        30.02S                  
BLOCK ISLAND   MOSUNNY   73  58  59 VRB5      30.03S                  
SMITHFIELD     MOSUNNY   71  56  58 NE7       30.03F                  
WESTERLY       MOSUNNY   71  59  65 CALM      30.02S                  
$$
 
CTZALL-151400-
CONNECTICUT
  
CITY           SKY/WX    TMP DP  RH WIND       PRES   REMARKS
BRADLEY INTL   PTSUNNY   67  55  65 N8        30.02S                  
HARTFORD       MOSUNNY   69  56  62 CALM      30.01F                  
BRIDGEPORT     MOSUNNY   71  60  68 E6        30.01S                  
DANBURY        PTSUNNY   71  58  63 CALM      30.02F                  
GROTON         MOSUNNY   73  58  59 N3        30.01S                  
NEW HAVEN      MOSUNNY   73  62  68 CALM      30.02S                  
CHESTER        FAIR      73  59  60 CALM      30.03S                  
MERIDEN        MOSUNNY   70  57  63 CALM      30.02S                  
WILLIMANTIC    MOSUNNY   66  56  70 CALM      30.03F                  
OXFORD         MOSUNNY   68  57  68 E3        30.03S                  
$$

MEZ002-015-021-024-NHZ003-005-008-011-012-014-VTZ005-008-151400-
NORTHERN NEW ENGLAND
  
CITY           SKY/WX    TMP DP  RH WIND       PRES   REMARKS
PORTLAND ME    MOSUNNY   70  57  63 N8        30.04S                  
BANGOR ME      MOSUNNY   70  60  70 N5        30.05F                  
CONCORD NH     SUNNY     66  55  67 CALM      30.04F                  
MANCHESTER NH  MOSUNNY   72  54  53 NW6       30.02S                  
NASHUA NH      SUNNY     68  57  68 N5        30.04S                  
PORTSMOUTH NH  MOSUNNY   72  56  57 CALM      30.02S                  
JAFFREY NH     SUNNY     68  54  60 CALM      30.06S                  
KEENE NH       SUNNY     61  53  75 CALM        N/A                   
BURLINGTON VT  MOSUNNY   67  55  65 N5        30.05S                  
MT. WASHINGTON PTSUNNY   48  45  87 SE9         N/A                   
$$

NYZ052-076-151400-
EASTERN NEW YORK
  
CITY           SKY/WX    TMP DP  RH WIND       PRES   REMARKS
ALBANY         MOSUNNY   69  56  62 CALM      30.03S                  
NEW YORK CITY  PTSUNNY   74  59  59 E6        29.99S                  
$$
 
ANZALL-151400-
MARINE OBSERVATIONS
  
STATION/POSITION TIME  TEMP    WIND        PRES    VSBY  WAVE
                       AIR SEA DIR/SP/G                  HT/PER
                 (UTC) (F)     (DEG/KT/KT) (MB)    (MI)  (FT/S)
BOSTON BUOY      NOT AVBL
BUZZARDS BAY     NOT AVBL
NANTUCKET SOUND  NOT AVBL
MASS BAY-STELLWA NOT AVBL
ISLE OF SHOALS   NOT AVBL
S OF BLOCK IS    NOT AVBL
$$

......................KEY.........................
  SKY/WX - SKY CONDITION/PRESENT WEATHER
  TMP    - TEMPERATURE IN FAHRENHEIT
  DWPT   - DEWPOINT IN FAHRENHEIT
  RH     - RELATIVE HUMIDITY IN PERCENT
  WIND   - DIRECTION AND SPEED IN MPH
  PRES   - MEAN SEA LEVEL PRESSURE IN INCHES OF HG
  WCI    - WIND CHILL INDEX
  VSB    - VISIBILITY IN MILES
  HX     - HEAT INDEX
  TC     - TEMPERATURE IN CELSIUS
  VRB    - VARIABLE WIND DIRECTION
  N/A    - NOT AVAILABLE
  
      

Other recent Regional Weather Roundups

Wed Aug 17, 5:10pm

Wed Aug 17, 4:10pm

Wed Aug 17, 3:10pm

Wed Aug 17, 2:10pm

Wed Aug 17, 1:10pm

Wed Aug 17, 12:10pm

Wed Aug 17, 11:10am

Wed Aug 17, 10:10am

Wed Aug 17, 9:10am

Wed Aug 17, 8:10am

Wed Aug 17, 7:10am

Wed Aug 17, 6:10am

Wed Aug 17, 5:10am

Wed Aug 17, 4:10am

Wed Aug 17, 3:10am

Wed Aug 17, 2:10am

Wed Aug 17, 1:10am

Wed Aug 17, 12:10am

Tue Aug 16, 11:10pm

Tue Aug 16, 10:10pm

Tue Aug 16, 9:10pm

Tue Aug 16, 8:10pm

Tue Aug 16, 7:10pm

Tue Aug 16, 6:10pm

Tue Aug 16, 5:10pm

Tue Aug 16, 4:10pm

Tue Aug 16, 3:10pm

Tue Aug 16, 2:10pm

Tue Aug 16, 1:10pm

Tue Aug 16, 12:10pm

Tue Aug 16, 11:10am

Tue Aug 16, 10:10am

Tue Aug 16, 9:10am

Tue Aug 16, 8:10am

Tue Aug 16, 7:10am

Tue Aug 16, 6:10am

Tue Aug 16, 5:10am

Tue Aug 16, 4:10am

Tue Aug 16, 3:10am

Tue Aug 16, 2:10am

Tue Aug 16, 1:10am

Tue Aug 16, 12:10am

Mon Aug 15, 11:10pm

Mon Aug 15, 10:10pm

Mon Aug 15, 9:10pm

Mon Aug 15, 8:10pm

Mon Aug 15, 7:10pm

Mon Aug 15, 6:10pm

Mon Aug 15, 5:10pm

Mon Aug 15, 4:10pm

Mon Aug 15, 3:10pm

Mon Aug 15, 2:10pm

Mon Aug 15, 1:10pm

Mon Aug 15, 12:10pm

Mon Aug 15, 11:10am

Mon Aug 15, 10:10am

Mon Aug 15, 8:10am

Mon Aug 15, 7:10am

Mon Aug 15, 6:10am

Mon Aug 15, 5:10am

Mon Aug 15, 4:10am

Mon Aug 15, 3:10am

Mon Aug 15, 2:10am

Mon Aug 15, 1:10am

Mon Aug 15, 12:10am

Sun Aug 14, 11:10pm

Sun Aug 14, 10:10pm

Sun Aug 14, 9:10pm

Sun Aug 14, 8:10pm

Sun Aug 14, 7:10pm

Sun Aug 14, 6:10pm

Sun Aug 14, 5:10pm

Sun Aug 14, 4:10pm

Sun Aug 14, 3:10pm

Sun Aug 14, 2:10pm

Sun Aug 14, 1:10pm

Sun Aug 14, 12:10pm

Sun Aug 14, 11:10am

Sun Aug 14, 10:10am

Sun Aug 14, 9:10am

Sun Aug 14, 8:10am

Sun Aug 14, 7:10am

Sun Aug 14, 6:10am

Sun Aug 14, 5:10am

Sun Aug 14, 4:10am

Sun Aug 14, 3:10am

Sun Aug 14, 2:10am

Sun Aug 14, 1:10am

Sun Aug 14, 12:10am

Sat Aug 13, 11:10pm

Sat Aug 13, 10:10pm

Sat Aug 13, 9:10pm

Sat Aug 13, 8:10pm

Sat Aug 13, 7:10pm

Sat Aug 13, 6:10pm

Sat Aug 13, 5:10pm

Sat Aug 13, 4:10pm

Sat Aug 13, 3:10pm

Sat Aug 13, 2:10pm

Sat Aug 13, 1:10pm

Sat Aug 13, 12:10pm

Sat Aug 13, 11:10am

Sat Aug 13, 10:10am

Sat Aug 13, 9:10am

Sat Aug 13, 8:10am

Sat Aug 13, 7:10am

Sat Aug 13, 6:10am

Sat Aug 13, 5:10am

Sat Aug 13, 4:10am

Sat Aug 13, 3:10am

Sat Aug 13, 2:10am

Sat Aug 13, 1:10am

Sat Aug 13, 12:10am

Fri Aug 12, 11:10pm

Fri Aug 12, 10:10pm

Fri Aug 12, 9:10pm

Fri Aug 12, 8:10pm

Fri Aug 12, 7:10pm

Fri Aug 12, 6:10pm

Fri Aug 12, 5:10pm

Fri Aug 12, 4:10pm

Fri Aug 12, 3:10pm

Fri Aug 12, 2:10pm

Fri Aug 12, 1:10pm

Fri Aug 12, 12:10pm

Fri Aug 12, 11:10am

Fri Aug 12, 10:10am

Fri Aug 12, 9:10am

Fri Aug 12, 8:10am

Fri Aug 12, 7:10am

Fri Aug 12, 6:10am

Fri Aug 12, 5:10am

Fri Aug 12, 4:10am

Fri Aug 12, 3:10am

Fri Aug 12, 2:10am

Fri Aug 12, 1:10am

Fri Aug 12, 12:10am

Thu Aug 11, 11:10pm

Thu Aug 11, 10:10pm

Thu Aug 11, 9:10pm

Thu Aug 11, 8:10pm

Thu Aug 11, 7:10pm

Thu Aug 11, 6:10pm

Thu Aug 11, 5:10pm

Thu Aug 11, 4:10pm

Thu Aug 11, 3:10pm

Thu Aug 11, 2:10pm

Thu Aug 11, 1:10pm

Thu Aug 11, 12:10pm

Thu Aug 11, 11:10am

Thu Aug 11, 10:10am

Thu Aug 11, 9:10am

Thu Aug 11, 8:10am

Thu Aug 11, 7:10am

Thu Aug 11, 6:10am

Thu Aug 11, 5:10am

Thu Aug 11, 4:10am

Thu Aug 11, 3:10am

Thu Aug 11, 2:10am

Thu Aug 11, 1:10am

Thu Aug 11, 12:10am

Wed Aug 10, 11:10pm

Wed Aug 10, 10:10pm

Wed Aug 10, 9:10pm

Wed Aug 10, 8:10pm

Wed Aug 10, 7:10pm

Wed Aug 10, 6:10pm

Meta data:

ID: 7017b709-3ccc-4ccb-96b5-658b56efc31a
Link: https://api.weather.gov/products/7017b709-3ccc-4ccb-96b5-658b56efc31a